Location: 22
(39.7117°N, 89.5929°W)
Time: 06:24:21
(UTC-05:00)

Vanguard 1 Rocket - Pass Details

Date: 11 February 2023
Orbit: 652 x 4223 km, 34.3° (Epoch: 26 March)

Event Time Altitude Azimuth Distance (km) Brightness Sun altitude
Rises 18:56:18 0° 270° (W) 7,109 13.7 -17.1°
Reaches altitude 10° 19:05:25 10° 248° (WSW) 6,786 12.9 -18.9°
Maximum altitude 19:13:50 13° 226° (SW) 6,922 12.5 -20.5°
Drops below altitude 10° 19:23:05 10° 204° (SSW) 7,411 12.3 -22.3°
Sets 19:34:53 0° 182° (S) 8,310 12.3 -24.5°
